TimeCDT,TemperatureF,Dew PointF,Humidity,Sea Level PressureIn,VisibilityMPH,Wind Direction,Wind SpeedMPH,Gust SpeedMPH,PrecipitationIn,Events,Conditions,WindDirDegrees,DateUTC
12:55 AM,30.9,27.0,85,30.29,10.0,WNW,8.1,-,N/A,,Clear,300,2013-10-24 05:55:00
1:55 AM,30.9,27.0,85,30.31,10.0,WNW,9.2,-,N/A,,Mostly Cloudy,300,2013-10-24 06:55:00
2:55 AM,32.0,28.0,85,30.32,10.0,WNW,10.4,-,N/A,,Overcast,300,2013-10-24 07:55:00
3:55 AM,30.9,27.0,85,30.32,10.0,WNW,8.1,-,N/A,,Mostly Cloudy,290,2013-10-24 08:55:00
4:55 AM,28.9,25.0,85,30.34,10.0,WNW,8.1,-,N/A,,Clear,290,2013-10-24 09:55:00
5:55 AM,28.9,25.0,85,30.35,10.0,WNW,8.1,-,N/A,,Clear,300,2013-10-24 10:55:00
6:55 AM,28.9,25.0,85,30.37,10.0,West,8.1,-,N/A,,Partly Cloudy,280,2013-10-24 11:55:00
7:55 AM,28.0,25.0,88,30.38,10.0,WNW,8.1,-,N/A,,Clear,300,2013-10-24 12:55:00
8:55 AM,30.9,26.1,82,30.39,10.0,WNW,8.1,-,N/A,,Clear,290,2013-10-24 13:55:00
9:55 AM,36.0,27.0,70,30.40,10.0,NW,11.5,-,N/A,,Clear,320,2013-10-24 14:55:00
10:55 AM,41.0,28.0,60,30.40,10.0,NW,12.7,-,N/A,,Clear,310,2013-10-24 15:55:00
11:55 AM,44.1,28.9,55,30.40,10.0,NW,12.7,-,N/A,,Clear,310,2013-10-24 16:55:00
12:55 PM,46.0,28.0,50,30.38,10.0,NW,13.8,-,N/A,,Clear,310,2013-10-24 17:55:00
1:55 PM,46.9,27.0,46,30.37,10.0,NW,11.5,-,N/A,,Clear,320,2013-10-24 18:55:00
2:55 PM,50.0,27.0,41,30.35,10.0,NW,12.7,18.4,N/A,,Mostly Cloudy,320,2013-10-24 19:55:00
3:55 PM,48.0,23.0,37,30.35,10.0,NW,15.0,18.4,N/A,,Scattered Clouds,310,2013-10-24 20:55:00
4:55 PM,46.0,26.1,46,30.35,10.0,NW,8.1,-,N/A,,Scattered Clouds,320,2013-10-24 21:55:00
5:55 PM,44.1,26.1,49,30.35,10.0,WNW,5.8,-,N/A,,Clear,290,2013-10-24 22:55:00
6:55 PM,36.0,26.1,67,30.35,10.0,NW,3.5,-,N/A,,Clear,320,2013-10-24 23:55:00
7:55 PM,36.0,27.0,70,30.36,10.0,Calm,Calm,-,N/A,,Clear,0,2013-10-25 00:55:00
8:55 PM,32.0,26.1,79,30.36,10.0,Calm,Calm,-,N/A,,Clear,0,2013-10-25 01:55:00
9:55 PM,30.9,26.1,82,30.36,10.0,East,3.5,-,N/A,,Clear,80,2013-10-25 02:55:00
10:55 PM,30.9,26.1,82,30.37,10.0,SE,3.5,-,N/A,,Clear,140,2013-10-25 03:55:00
11:55 PM,33.1,27.0,78,30.36,10.0,SE,6.9,-,N/A,,Clear,130,2013-10-25 04:55:00